| time (UTC) | temp F | wind direction | speed knots | gust knots | rain 1hr in | rain 24hr in | rain mn in | humidity % | barometer mb |
| 20260903074304 | 73 | 166 | 1.7 | 2.6 | 0.94 | 0.94 | 0.94 | 92 | 1015.5 |
| 20260903073304 | 73 | 295 | 0.0 | 2.6 | 0.90 | 0.90 | 0.90 | 92 | 1016.2 |
| 20260903071304 | 74 | 333 | 4.3 | 8.7 | 0.73 | 0.73 | 0.73 | 91 | 1017.3 |
| 20260903070804 | 74 | 293 | 2.6 | 6.1 | 0.65 | 0.65 | 0.65 | 91 | 1017.3 |
| 20260903064804 | 74 | 19 | 0.9 | 2.6 | 0.00 | 0.00 | 0.00 | 91 | 1016.2 |
| 20260903064304 | 74 | 19 | 0.0 | 0.9 | 0.00 | 0.00 | 0.00 | 91 | 1015.7 |
| 20260903063805 | 74 | 20 | 2.6 | 6.1 | 0.00 | 0.00 | 0.00 | 91 | 1015.9 |
| 20260903061804 | 75 | 0 | 8.7 | 12.2 | 0.00 | 0.00 | 0.00 | 91 | 1016.4 |
| 20260903060805 | 75 | 347 | 7.8 | 10.4 | 0.00 | 0.00 | 0.00 | 91 | 1016.2 |
| 20260903060304 | 75 | 349 | 3.5 | 5.2 | 0.00 | 0.00 | 0.00 | 91 | 1015.9 |
| 20260903055306 | 75 | 346 | 4.3 | 5.2 | 0.00 | 0.00 | 0.00 | 91 | 1015.9 |
| 20260903052804 | 75 | 123 | 0.0 | 0.0 | 0.00 | 0.00 | 0.00 | 91 | 1016.1 |
| 20260903052307 | 75 | 123 | 0.0 | 0.0 | 0.00 | 0.00 | 0.00 | 91 | 1016.3 |
| 20260903050804 | 75 | 123 | 0.0 | 0.0 | 0.00 | 0.00 | 0.00 | 91 | 1016.4 |
| 20260903045306 | 75 | 123 | 0.0 | 0.0 | 0.00 | 0.00 | 0.00 | 90 | 1016.6 |
| 20260903044804 | 75 | 123 | 0.0 | 0.0 | 0.00 | 0.00 | 0.00 | 90 | 1016.6 |
| 20260903044304 | 74 | 123 | 0.0 | 0.0 | 0.00 | 0.00 | 0.00 | 90 | 1016.8 |
| 20260903043804 | 75 | 123 | 0.0 | 0.0 | 0.00 | 0.00 | 0.00 | 90 | 1016.7 |
| 20260903043304 | 75 | 123 | 0.0 | 0.0 | 0.00 | 0.00 | 0.00 | 90 | 1016.7 |
| 20260903042804 | 75 | 123 | 0.0 | 0.0 | 0.00 | 0.00 | 0.00 | 90 | 1016.7 |
| 20260903042306 | 75 | 123 | 0.0 | 1.7 | 0.00 | 0.00 | 0.00 | 90 | 1016.8 |
| 20260903040836 | 75 | 115 | 0.9 | 1.7 | 0.00 | 0.00 | 0.00 | 90 | 1016.9 |
| 20260903035805 | 75 | 109 | 1.7 | 2.6 | 0.00 | 0.00 | 0.00 | 90 | 1016.8 |
| 20260903034304 | 75 | 131 | 1.7 | 4.3 | 0.00 | 0.00 | 0.00 | 90 | 1016.5 |
| 20260903033304 | 75 | 144 | 2.6 | 5.2 | 0.00 | 0.00 | 0.00 | 90 | 1016.4 |
| 20260903032804 | 74 | 143 | 1.7 | 5.2 | 0.00 | 0.00 | 0.00 | 90 | 1016.5 |
| 20260903030304 | 74 | 124 | 5.2 | 11.3 | 0.00 | 0.00 | 0.00 | 90 | 1016.7 |
| 20260903025306 | 74 | 109 | 4.3 | 10.4 | 0.00 | 0.00 | 0.00 | 90 | 1016.7 |
| 20260903023805 | 74 | 116 | 5.2 | 8.7 | 0.00 | 0.00 | 0.00 | 90 | 1016.6 |
| 20260903021804 | 74 | 118 | 5.2 | 10.4 | 0.00 | 0.01 | 0.00 | 89 | 1016.7 |
| 20260903014304 | 74 | 109 | 6.1 | 10.4 | 0.00 | 0.03 | 0.00 | 88 | 1017.2 |
| 20260903013805 | 74 | 105 | 6.1 | 10.4 | 0.00 | 0.05 | 0.00 | 88 | 1017.2 |
| 20260903013304 | 74 | 102 | 7.8 | 11.3 | 0.00 | 0.06 | 0.00 | 88 | 1017.3 |
| 20260903012306 | 75 | 91 | 4.3 | 10.4 | 0.00 | 0.16 | 0.00 | 87 | 1017.7 |
| 20260903011809 | 75 | 105 | 6.1 | 10.4 | 0.00 | 0.47 | 0.00 | 87 | 1017.6 |
| 20260903010804 | 75 | 104 | 5.2 | 7.8 | 0.00 | 1.13 | 0.00 | 87 | 1017.5 |
| 20260903010304 | 74 | 105 | 6.1 | 10.4 | 0.00 | 1.27 | 0.00 | 87 | 1017.5 |
| 20260903005805 | 75 | 102 | 5.2 | 8.7 | 0.00 | 1.42 | 0.00 | 87 | 1017.6 |
| 20260903005306 | 75 | 98 | 5.2 | 7.8 | 0.00 | 1.56 | 0.00 | 87 | 1017.6 |
| 20260903004304 | 75 | 98 | 5.2 | 10.4 | 0.00 | 1.67 | 0.00 | 87 | 1017.5 |
| 20260903003304 | 74 | 102 | 5.2 | 8.7 | 0.00 | 1.71 | 0.00 | 87 | 1017.2 |
| 20260903002306 | 74 | 102 | 4.3 | 10.4 | 0.00 | 1.72 | 0.00 | 87 | 1017.0 |
| 20260903001804 | 74 | 101 | 4.3 | 10.4 | 0.00 | 1.74 | 0.00 | 87 | 1017.0 |
| 20260903001304 | 74 | 104 | 7.8 | 10.4 | 0.00 | 1.74 | 0.00 | 86 | 1016.9 |
| 20260903000304 | 74 | 108 | 6.1 | 10.4 | 0.00 | 1.74 | 0.00 | 86 | 1016.9 |
| 20260902235306 | 74 | 101 | 7.8 | 10.4 | 0.00 | 1.74 | 0.00 | 86 | 1016.7 |
| 20260902234804 | 74 | 102 | 6.1 | 10.4 | 0.00 | 1.74 | 0.00 | 86 | 1016.6 |
| 20260902233804 | 74 | 90 | 7.8 | 11.3 | 0.00 | 1.74 | 0.00 | 86 | 1016.6 |
| 20260902233303 | 74 | 101 | 6.1 | 11.3 | 0.00 | 1.74 | 0.00 | 86 | 1016.6 |
| 20260902231303 | 74 | 89 | 6.1 | 11.3 | 0.00 | 1.74 | 0.00 | 85 | 1016.8 |
| 20260902230804 | 74 | 95 | 6.1 | 11.3 | 0.00 | 1.74 | 0.00 | 85 | 1016.7 |
| 20260902230304 | 74 | 88 | 7.0 | 11.3 | 0.00 | 1.74 | 0.00 | 85 | 1016.7 |
| 20260902224803 | 74 | 97 | 7.8 | 12.2 | 0.00 | 1.74 | 0.00 | 85 | 1017.1 |
| 20260902223803 | 74 | 99 | 7.0 | 11.3 | 0.00 | 1.74 | 0.00 | 85 | 1017.2 |
| 20260902222803 | 75 | 80 | 6.1 | 10.4 | 0.00 | 1.74 | 0.00 | 85 | 1017.5 |
| 20260902221804 | 75 | 74 | 4.3 | 12.2 | 0.00 | 1.74 | 0.00 | 85 | 1017.6 |
| 20260902221304 | 75 | 95 | 6.1 | 10.4 | 0.00 | 1.74 | 0.00 | 84 | 1017.6 |
| 20260902214808 | 75 | 99 | 5.2 | 8.7 | 0.00 | 1.74 | 0.00 | 84 | 1017.8 |
| 20260902214307 | 75 | 95 | 5.2 | 8.7 | 0.00 | 1.74 | 0.00 | 84 | 1017.7 |
| 20260902213807 | 75 | 97 | 5.2 | 10.4 | 0.00 | 1.74 | 0.00 | 84 | 1017.8 |
| 20260902213307 | 75 | 106 | 4.3 | 7.8 | 0.00 | 1.74 | 0.00 | 84 | 1017.8 |
| 20260902212813 | 75 | 82 | 4.3 | 10.4 | 0.00 | 1.74 | 0.00 | 84 | 1017.8 |
| 20260902211307 | 75 | 81 | 5.2 | 10.4 | 0.00 | 1.74 | 0.00 | 83 | 1017.4 |
| 20260902204808 | 75 | 87 | 4.3 | 8.7 | 0.00 | 1.74 | 0.00 | 83 | 1017.3 |
| 20260902204307 | 75 | 98 | 6.1 | 10.4 | 0.00 | 1.74 | 0.00 | 84 | 1017.2 |
| 20260902203808 | 75 | 100 | 6.1 | 8.7 | 0.00 | 1.74 | 0.00 | 83 | 1017.3 |
| 20260902203307 | 75 | 101 | 6.1 | 10.4 | 0.00 | 1.74 | 0.00 | 83 | 1017.3 |
| 20260902202807 | 75 | 103 | 6.1 | 8.7 | 0.00 | 1.74 | 0.00 | 83 | 1017.4 |
| 20260902201808 | 75 | 96 | 5.2 | 10.4 | 0.00 | 1.74 | 0.00 | 83 | 1017.6 |
| 20260902200808 | 75 | 104 | 5.2 | 8.7 | 0.00 | 1.74 | 0.00 | 83 | 1017.7 |
| 20260902195308 | 76 | 106 | 4.3 | 8.7 | 0.00 | 1.74 | 0.00 | 82 | 1017.7 |
| 20260902194807 | 76 | 87 | 4.3 | 8.7 | 0.00 | 1.74 | 0.00 | 82 | 1017.8 |
| 20260902193808 | 76 | 94 | 2.6 | 6.1 | 0.00 | 1.74 | 0.00 | 82 | 1017.9 |
| 20260902193307 | 76 | 95 | 4.3 | 8.7 | 0.00 | 1.74 | 0.00 | 81 | 1017.7 |
| 20260902192808 | 76 | 81 | 2.6 | 7.8 | 0.00 | 1.74 | 0.00 | 82 | 1017.8 |
| 20260902192307 | 76 | 103 | 5.2 | 8.7 | 0.00 | 1.74 | 0.00 | 82 | 1017.8 |
| 20260902191308 | 76 | 104 | 5.2 | 7.8 | 0.00 | 1.74 | 0.00 | 81 | 1018.0 |
| 20260902190807 | 76 | 105 | 6.1 | 10.4 | 0.00 | 1.74 | 0.00 | 81 | 1018.2 |
| 20260902190307 | 76 | 103 | 4.3 | 8.7 | 0.00 | 1.74 | 0.00 | 80 | 1018.3 |
| 20260902185308 | 76 | 104 | 5.2 | 8.7 | 0.00 | 1.74 | 0.00 | 80 | 1018.4 |
| 20260902184307 | 77 | 102 | 4.3 | 7.0 | 0.00 | 1.74 | 0.00 | 80 | 1018.0 |
| 20260902181807 | 78 | 77 | 2.6 | 7.0 | 0.00 | 1.74 | 0.00 | 78 | 1018.7 |
| 20260902181307 | 77 | 89 | 4.3 | 10.4 | 0.00 | 1.74 | 0.00 | 78 | 1018.7 |
| 20260902175808 | 78 | 78 | 5.2 | 10.4 | 0.00 | 1.74 | 0.00 | 78 | 1018.9 |
| 20260902173808 | 78 | 69 | 6.1 | 10.4 | 0.00 | 1.74 | 0.00 | 78 | 1018.5 |
| 20260902173308 | 78 | 70 | 5.2 | 10.4 | 0.00 | 1.74 | 0.00 | 79 | 1018.5 |
| 20260902172808 | 78 | 73 | 5.2 | 10.4 | 0.00 | 1.74 | 0.00 | 79 | 1018.5 |
| 20260902172308 | 78 | 101 | 6.1 | 10.4 | 0.00 | 1.74 | 0.00 | 78 | 1018.5 |
| 20260902171807 | 78 | 80 | 5.2 | 10.4 | 0.00 | 1.74 | 0.00 | 79 | 1018.4 |
| 20260902170808 | 78 | 90 | 6.1 | 10.4 | 0.00 | 1.74 | 0.00 | 78 | 1018.4 |
| 20260902170308 | 78 | 72 | 5.2 | 10.4 | 0.00 | 1.74 | 0.00 | 79 | 1018.6 |
| 20260902164807 | 78 | 68 | 4.3 | 10.4 | 0.00 | 1.74 | 0.00 | 79 | 1018.7 |
| 20260902162307 | 78 | 74 | 5.2 | 8.7 | 0.00 | 1.74 | 0.00 | 78 | 1018.6 |
| 20260902161307 | 78 | 99 | 6.1 | 10.4 | 0.00 | 1.74 | 0.00 | 78 | 1018.6 |
| 20260902160807 | 78 | 99 | 6.1 | 11.3 | 0.00 | 1.74 | 0.00 | 78 | 1018.6 |
| 20260902155307 | 78 | 96 | 7.8 | 13.0 | 0.00 | 1.74 | 0.00 | 79 | 1018.5 |
| 20260902153807 | 78 | 93 | 5.2 | 12.2 | 0.00 | 1.74 | 0.00 | 79 | 1018.5 |
| 20260902153307 | 77 | 93 | 7.0 | 11.3 | 0.00 | 1.74 | 0.00 | 80 | 1018.6 |
| 20260902145307 | 77 | 97 | 7.0 | 13.0 | 0.00 | 1.74 | 0.00 | 81 | 1018.9 |
| 20260902144307 | 76 | 95 | 6.1 | 13.0 | 0.00 | 1.74 | 0.00 | 83 | 1018.6 |
| 20260902142807 | 76 | 99 | 7.0 | 11.3 | 0.00 | 1.74 | 0.00 | 84 | 1018.8 |
| 20260902140807 | 76 | 93 | 5.2 | 10.4 | 0.00 | 1.74 | 0.00 | 84 | 1018.8 |
| 20260902140307 | 76 | 93 | 6.1 | 10.4 | 0.00 | 1.74 | 0.00 | 84 | 1018.7 |
| 20260902135307 | 76 | 98 | 5.2 | 10.4 | 0.00 | 1.74 | 0.00 | 85 | 1018.4 |
| 20260902133807 | 75 | 89 | 7.0 | 12.2 | 0.00 | 1.74 | 0.00 | 86 | 1018.2 |
| 20260902132807 | 75 | 93 | 6.1 | 10.4 | 0.00 | 1.74 | 0.00 | 87 | 1018.0 |
| 20260902131807 | 74 | 96 | 7.0 | 12.2 | 0.00 | 1.74 | 0.00 | 88 | 1018.0 |
| 20260902131307 | 74 | 91 | 6.1 | 12.2 | 0.00 | 1.74 | 0.00 | 88 | 1017.9 |
| 20260902130307 | 74 | 92 | 5.2 | 10.4 | 0.00 | 1.74 | 0.00 | 88 | 1017.8 |
| 20260902125307 | 74 | 95 | 7.8 | 10.4 | 0.00 | 1.74 | 0.00 | 88 | 1017.9 |
| 20260902124309 | 74 | 94 | 6.1 | 10.4 | 0.00 | 1.74 | 0.00 | 88 | 1018.0 |
| 20260902123807 | 74 | 87 | 5.2 | 10.4 | 0.00 | 1.74 | 0.00 | 89 | 1017.9 |
| 20260902122307 | 74 | 92 | 6.1 | 10.4 | 0.00 | 1.74 | 0.00 | 90 | 1017.8 |
| 20260902120307 | 73 | 86 | 5.2 | 12.2 | 0.00 | 1.74 | 0.00 | 90 | 1017.9 |
| 20260902115309 | 73 | 82 | 6.1 | 11.3 | 0.00 | 1.74 | 0.00 | 90 | 1017.7 |
| 20260902113808 | 73 | 79 | 5.2 | 10.4 | 0.00 | 1.74 | 0.00 | 90 | 1017.7 |
| 20260902112307 | 73 | 69 | 5.2 | 10.4 | 0.00 | 1.74 | 0.00 | 91 | 1017.8 |
| 20260902110807 | 73 | 93 | 4.3 | 10.4 | 0.00 | 1.74 | 0.00 | 90 | 1017.7 |
| 20260902110307 | 73 | 82 | 5.2 | 10.4 | 0.00 | 1.74 | 0.00 | 90 | 1017.6 |
| 20260902103807 | 74 | 71 | 6.1 | 11.3 | 0.00 | 1.74 | 0.00 | 89 | 1017.5 |
| 20260902103307 | 74 | 83 | 7.0 | 12.2 | 0.00 | 1.74 | 0.00 | 89 | 1017.5 |
| 20260902102807 | 74 | 96 | 6.1 | 12.2 | 0.00 | 1.74 | 0.00 | 89 | 1017.5 |
| 20260902102308 | 74 | 86 | 5.2 | 13.0 | 0.00 | 1.74 | 0.00 | 89 | 1017.4 |
| 20260902101807 | 74 | 75 | 5.2 | 11.3 | 0.00 | 1.74 | 0.00 | 89 | 1017.4 |
| 20260902101307 | 74 | 70 | 6.1 | 12.2 | 0.00 | 1.74 | 0.00 | 89 | 1017.4 |
| 20260902100807 | 74 | 70 | 6.1 | 11.3 | 0.00 | 1.74 | 0.00 | 89 | 1017.3 |
| 20260902094807 | 74 | 73 | 5.2 | 8.7 | 0.00 | 1.74 | 0.00 | 89 | 1017.0 |
| 20260902094307 | 74 | 62 | 6.1 | 12.2 | 0.00 | 1.74 | 0.00 | 89 | 1016.9 |
| 20260902093807 | 74 | 72 | 6.1 | 11.3 | 0.00 | 1.74 | 0.00 | 89 | 1016.8 |
| 20260902092808 | 74 | 87 | 7.0 | 10.4 | 0.00 | 1.74 | 0.00 | 90 | 1016.7 |
| 20260902091308 | 74 | 73 | 6.1 | 10.4 | 0.00 | 1.74 | 0.00 | 90 | 1016.6 |
| 20260902085807 | 74 | 56 | 6.1 | 10.4 | 0.00 | 1.74 | 0.00 | 90 | 1016.5 |
| 20260902085306 | 74 | 88 | 5.2 | 10.4 | 0.00 | 1.74 | 0.00 | 90 | 1016.5 |
| 20260902082808 | 74 | 88 | 6.1 | 10.4 | 0.00 | 1.74 | 0.00 | 91 | 1016.4 |
| 20260902080307 | 74 | 65 | 6.1 | 11.3 | 0.00 | 1.74 | 0.00 | 91 | 1016.0 |
| 20260902075807 | 74 | 76 | 7.0 | 12.2 | 0.00 | 1.74 | 0.00 | 91 | 1016.1 |
| 20260902074806 | 74 | 69 | 7.0 | 11.3 | 0.00 | 1.74 | 0.00 | 91 | 1016.2 |